Regional Weather Roundup
Issued by NWS

Home | Current Version | Previous Version | Graphics & Text | Print | Product List | Glossary On
Versions: 1 2 3 4 5 6 7 8 9 10 11 12 13 14 15 16 17 18 19 20 21 22 23 24 25 26 27
000
ASUS45 KCYS 230810
RWRWY

WYOMING REGIONAL WEATHER ROUNDUP
NATIONAL WEATHER SERVICE CHEYENNE WY
200 AM MDT SUN JUL 23 2017

NOTE:  "FAIR" INDICATES FEW OR NO CLOUDS BELOW 12,000 FEET
WITH NO SIGNIFICANT WEATHER AND/OR OBSTRUCTIONS TO VISIBILITY.

WYZ001-230900-
YELLOWSTONE NATIONAL PARK

CITY           SKY/WX    TMP DP  RH WIND       PRES   REMARKS
LK YELLOWSTONE   N/A     43  35  73 NW3       30.41F
W YELLOWSTONE  NOT AVBL

$$
WYZ002>013-054>058-071-098>099-230900-
NORTHERN WYOMING

CITY           SKY/WX    TMP DP  RH WIND       PRES   REMARKS
JACKSON        FAIR      48  39  71 NE6       30.30F
CODY           FAIR      67  37  33 SW6       30.20F
GREYBULL       FAIR      63  40  42 S5        30.09R
WORLAND        FAIR      64  35  34 S9        30.11S
SHERIDAN       FAIR      59  41  51 CALM      30.13F
BUFFALO        FAIR      63  34  33 W6        30.20F
GILLETTE       FAIR      55  39  54 S5        30.15F
HULETT         FAIR      68  37  32 E5        30.16F
NEWCASTLE      FAIR      63  37  39 CALM      30.15S

$$
WYZ014>020-022>026-101>103-230900-
CENTRAL WYOMING

CITY           SKY/WX    TMP DP  RH WIND       PRES   REMARKS
BIG PINEY      FAIR      49  36  61 NW6       30.32F
PINEDALE       FAIR      46  39  76 NW6       30.33F
DUBOIS         FAIR      52  32  46 NW9       30.34F
LANDER         FAIR      69  33  26 W12       30.22R
RIVERTON       FAIR      68  31  25 E10       30.20R
CASPER         FAIR      56  35  45 W6        30.19S
DOUGLAS        FAIR      62  53  72 CALM      30.17S

$$
WYZ021-027>030-104>119-230900-
SOUTHERN WYOMING

CITY           SKY/WX    TMP DP  RH WIND       PRES   REMARKS
EVANSTON       FAIR      64  34  32 S6        30.32F
KEMMERER         N/A     55  32  41 N12       30.33F
FORT BRIDGER   FAIR      63  29  28 S8        30.34S
ROCK SPRINGS   FAIR      65  28  24 E3        30.27F
RAWLINS        FAIR      58  32  37 NE8       30.29S
SARATOGA       FAIR      54  41  62 SE6       30.32S
LARAMIE        FAIR      58  46  64 S9        30.34S
CHEYENNE       FAIR      61  49  64 W8        30.26F
TORRINGTON     FAIR      64  53  67 E7        30.12F
PINE BLUFFS    FAIR      57  46  67 CALM      30.21F

$$




USA.gov is the U.S. government's official web portal to all federal, state and local government web resources and services.